Location: Chiroubles
(46.1812°N, 4.6660°E)
Time: 11:04:48
(UTC+00:00)

N. Korean satellite - Pass Details

Date: 04 November 2020
Orbit: 453 x 503 km, 97.2° (Epoch: 03 December)

Event Time Altitude Azimuth Distance (km) Brightness Sun altitude
Rises 17:12:21 0° 200° (SSW) 2,514 10.7 -9.1°
Reaches altitude 10° 17:14:51 10° 219° (SW) 1,632 10.1 -9.5°
Maximum altitude 17:17:25 19° 266° (W) 1,176 9.7 -10.0°
Drops below altitude 10° 17:19:58 10° 314° (NW) 1,623 9.7 -10.4°
Sets 17:22:27 0° 333° (NNW) 2,496 10.4 -10.8°
